Location: Arbon
(43.0005°N, 0.7472°E)
Time: 11:09:49
(UTC+00:00)

SL-4 R/B - Pass Details

Date: 22 April 2026
Orbit: 380 x 506 km, 51.6° (Epoch: 13 May)

Event Time Altitude Azimuth Distance (km) Brightness Sun altitude
Rises 21:28:14 0° 246° (WSW) 2,554 5.6 -25.1°
Reaches altitude 10° 21:30:24 10° 250° (WSW) 1,690 4.7 -25.4°
Enters shadow 21:32:06 25° 258° (WSW) 1,048 3.6 -25.6°
